Dewpoint
67 70 71 71 71 71 71 70 70 70 70 70 70 70 71 71 72 72 72 72 72 72 70 70 70 70 70 69 69 68 68 69 69 70 69 69 69 69 70 69 69 69 69
67 70 71 71 71 71 70 71 70 70 70 70 70 70 70 71 71 72 72 72 72 71 70 70 70 70 70 69 68 68 69 69 69 69 69 69 69 69 68 68 68 68 67
67 70 71 71 72 72 71 71 71 71 71 70 70 70 70 71 71 71 71 72 71 71 70 70 70 70 69 69 69 69 69 69 68 67 67 68 68 68 67 68 68 67 66
68 69 70 71 72 72 71 71 71 71 71 70 70 70 70 71 71 71 71 71 71 71 70 70 70 71 69 68 69 69 69 69 68 66 67 67 66 67 67 67 67 67 66
67 69 70 71 71 72 71 71 71 71 71 70 70 70 70 71 71 71 71 71 71 71 70 70 70 69 68 68 68 68 68 68 67 63 63 66 67 67 67 67 67 67 66
67 68 69 70 71 71 71 71 71 71 70 70 70 70 70 71 71 71 71 71 71 71 71 71 69 68 68 68 68 68 68 68 68 65 59 65 67 68 67 67 66 66 66
68 68 69 70 70 71 71 71 71 70 70 70 70 70 70 71 71 70 70 71 71 71 71 70 68 68 68 67 67 67 67 67 66 66 61 65 67 67 66 67 66 67 66
68 68 68 69 69 70 71 71 71 70 70 70 70 70 70 71 70 70 70 71 71 71 71 69 68 67 67 67 67 67 66 66 66 66 66 67 68 67 67 66 66 66 66
68 68 68 68 69 69 70 71 71 70 70 70 70 70 70 70 70 70 70 70 70 70 70 68 67 67 67 67 67 66 66 65 65 66 66 66 67 67 66 66 66 66 66
64 69 68 68 68 68 69 70 70 70 70 70 70 70 70 70 70 69 69 70 70 70 70 68 67 67 67 67 66 66 65 65 64 65 66 66 68 67 66 65 65 65 65
24 35 69 68 68 67 68 68 69 70 70 70 70 70 70 70 70 69 69 70 70 70 69 68 67 66 66 66 66 66 65 64 65 65 65 66 67 67 66 65 65 64 64
36 37 42 45 61 67 67 67 68 68 69 70 70 70 70 70 69 69 69 69 69 68 68 68 67 66 66 66 66 65 65 64 65 65 65 66 67 67 66 65 65 64 65
38 40 42 45 49 51 61 67 67 67 68 69 69 69 69 69 69 69 69 69 69 68 68 67 66 66 66 65 65 64 64 63 64 64 65 66 67 67 66 65 65 65 65
36 37 40 42 46 47 52 54 62 67 67 68 69 69 68 69 68 68 68 68 68 68 67 66 65 65 65 65 64 63 63 63 64 64 64 65 66 67 66 65 64 64 65
33 35 38 39 43 44 48 50 53 56 66 66 68 69 69 68 68 68 67 67 68 67 67 66 65 64 64 64 64 64 63 63 64 64 63 65 65 66 65 65 63 63 64
33 33 35 37 39 41 43 46 49 54 56 66 66 67 69 68 67 67 67 67 67 67 67 66 65 64 63 64 63 64 63 63 63 63 63 64 64 65 65 65 64 64 64
31 32 34 34 37 39 41 43 45 49 53 56 65 66 68 67 67 66 66 67 67 67 67 66 65 64 63 63 63 63 62 62 62 63 63 63 63 64 65 65 64 64 64
30 30 31 34 35 36 38 40 42 45 50 56 58 66 66 67 66 66 66 66 67 67 67 66 65 64 63 62 62 62 62 61 62 63 63 63 63 63 64 64 64 64 64
29 29 30 32 34 34 36 38 41 42 48 50 55 57 63 66 66 66 66 66 67 66 66 65 65 64 63 62 62 62 62 61 61 63 63 62 63 63 63 64 64 64 63
28 29 29 30 32 33 35 37 40 42 44 46 51 56 56 59 65 66 66 66 66 66 65 65 64 64 62 62 62 61 61 61 59 61 63 63 62 62 63 63 63 63 63
28 28 28 30 31 33 34 36 38 40 43 45 48 50 51 55 60 66 66 66 66 65 65 65 64 63 62 61 61 60 60 61 60 60 61 62 62 62 62 62 62 62 62
27 27 28 30 31 32 34 36 38 40 42 46 47 49 52 53 59 65 65 65 66 65 65 65 64 62 62 62 59 59 57 58 60 61 60 61 61 62 62 62 62 61 61
27 28 29 30 31 33 34 36 39 40 41 43 44 46 48 51 53 61 65 65 66 65 64 65 64 63 62 62 61 57 55 54 56 59 60 60 61 60 61 61 62 61 61
28 29 29 30 31 32 34 35 38 40 40 42 45 46 47 50 55 57 60 63 64 66 64 64 65 64 63 61 61 59 57 56 53 50 58 60 60 60 60 60 60 61 61
28 28 30 31 31 31 33 35 37 41 42 45 46 47 47 50 53 58 60 62 63 65 65 64 64 64 63 62 61 60 59 58 58 56 53 57 60 60 60 60 60 60 61
28 29 30 31 32 32 33 35 38 40 42 43 44 46 49 52 56 57 55 57 61 64 64 64 64 64 63 61 61 60 59 58 57 58 57 56 56 58 60 60 60 60 61
Wind_Speed
5 11 14 13 13 13 14 17 19 20 19 17 18 18 19 20 20 20 18 17 16 17 16 15 13 11 12 11 11 11 11 13 14 14 13 13 15 15 15 15 15 14 16
16 8 9 12 13 14 13 16 18 19 20 18 17 17 17 18 19 19 19 17 15 15 14 13 11 10 12 11 11 11 12 13 14 14 14 13 14 13 11 13 14 14 15
16 14 12 11 11 11 12 13 16 18 20 20 19 17 16 16 16 17 17 17 16 14 13 12 10 10 11 12 11 10 11 12 14 14 12 11 10 11 10 12 13 15 13
13 13 13 12 12 12 13 13 14 16 18 20 20 18 16 16 15 15 14 14 14 14 13 12 10 11 10 10 10 11 11 10 12 9 10 9 7 9 15 14 15 15 15
10 8 9 12 12 12 13 13 13 14 16 18 19 19 17 15 14 14 14 12 12 12 13 12 10 10 10 11 10 10 10 10 11 9 11 10 8 13 15 16 16 16 17
10 9 10 9 10 10 11 13 14 14 16 17 18 18 18 17 16 14 13 12 11 11 11 11 11 10 10 11 10 10 10 9 9 6 6 10 11 15 16 17 18 18 17
10 9 10 9 9 9 9 12 13 14 15 15 16 17 18 18 16 15 14 12 12 11 12 11 11 11 9 9 9 9 8 9 8 7 9 10 12 17 18 18 18 18 18
13 10 10 12 11 10 10 10 11 12 14 15 15 16 18 18 18 17 15 13 12 11 12 11 11 11 10 9 9 8 8 6 5 9 12 14 16 19 19 19 18 18 18
6 8 11 11 14 14 13 12 12 13 15 15 15 15 16 17 18 18 16 15 14 12 12 11 11 9 10 9 8 8 8 6 5 9 13 13 18 19 20 19 18 18 17
10 8 10 9 8 10 11 13 12 13 14 14 14 14 14 16 17 18 18 17 16 15 13 12 12 11 9 9 8 8 7 6 5 8 12 14 18 18 18 19 18 16 14
22 21 8 9 13 9 8 9 12 12 12 13 14 16 15 13 15 16 17 18 18 17 16 14 12 12 11 9 9 8 6 5 8 12 11 17 18 17 17 17 16 15 13
28 27 28 29 24 11 9 10 13 12 12 13 12 12 12 12 14 14 15 19 18 17 16 16 15 13 11 9 8 7 6 6 10 12 13 20 20 20 19 18 16 15 14
18 23 26 24 25 27 22 10 9 10 13 13 15 15 13 11 11 12 12 13 12 15 12 12 12 11 12 11 10 8 7 8 7 10 13 21 20 21 20 19 18 16 15
24 22 24 25 22 23 20 19 20 10 11 13 14 15 14 14 14 14 14 14 14 13 13 13 13 13 13 12 12 12 12 11 9 12 14 21 20 19 20 20 20 18 14
30 27 24 24 24 24 21 18 19 22 13 14 16 20 18 17 17 15 15 16 16 15 15 15 14 15 15 15 14 12 13 12 11 13 12 20 20 19 20 21 20 18 18
26 29 26 23 23 23 23 21 18 16 20 15 15 17 23 21 20 18 17 16 17 18 16 16 17 16 16 15 16 14 15 12 14 15 14 18 22 20 20 22 20 21 20
21 25 28 27 23 22 22 21 21 17 16 17 17 19 20 21 22 22 18 18 19 18 18 16 15 14 14 15 16 16 15 16 15 15 15 15 17 21 22 23 25 24 22
21 24 27 25 26 23 22 21 19 20 19 16 16 17 23 28 25 25 22 22 19 18 18 18 17 17 17 17 19 17 15 14 16 16 14 13 14 15 21 23 22 21 22
25 26 28 27 27 31 24 21 19 20 16 16 17 18 18 30 32 26 24 21 21 20 19 19 18 18 18 16 18 18 14 14 14 15 17 17 18 17 16 23 26 25 23
26 25 25 24 27 29 25 20 19 17 16 16 16 18 21 22 31 23 23 23 22 21 21 19 21 18 16 18 17 17 16 14 14 15 16 15 17 20 18 17 19 19 25
28 27 27 27 27 24 25 24 22 22 19 19 17 19 23 19 26 19 20 23 24 26 25 24 20 20 17 18 11 9 9 13 16 15 15 17 18 18 18 19 19 18 18
25 25 25 26 26 24 21 22 22 21 20 19 21 21 21 19 22 25 29 25 26 24 24 23 24 17 15 20 16 10 11 10 16 19 16 16 18 16 18 19 17 17 17
28 29 28 27 27 25 27 21 20 20 19 19 18 18 18 19 20 24 26 21 24 27 26 27 27 24 22 15 19 12 7 12 7 9 20 19 18 16 16 17 18 19 20
26 25 27 27 27 24 26 23 22 22 22 20 21 20 21 22 21 23 21 29 26 25 28 31 28 29 24 23 14 20 7 9 8 5 8 16 16 19 20 16 18 20 19
24 25 25 26 26 25 24 23 22 21 20 19 19 24 23 24 23 23 20 23 35 25 28 28 28 29 27 23 24 19 14 8 6 4 6 7 11 16 19 18 16 15 17
25 25 25 25 25 25 23 23 23 24 22 20 20 21 21 20 21 7 12 18 11 38 30 28 28 28 27 22 20 16 21 21 19 10 10 7 9 6 14 14 16 16 16
Wind_Direction
166 168 157 153 142 135 129 125 123 123 119 115 113 113 112 113 115 115 113 113 115 119 122 118 111 111 105 100 99 105 111 119 127 121 122 120 115 114 117 116 111 113 123
148 162 161 152 148 146 142 137 135 133 129 125 122 120 119 120 123 123 123 121 118 117 117 114 109 115 111 109 105 113 115 118 124 123 119 113 120 124 119 123 122 128 123
151 157 161 153 148 153 152 148 144 143 139 136 133 131 129 126 127 129 129 127 122 120 122 122 113 112 115 111 116 117 118 121 125 117 112 123 133 130 126 125 123 118 120
159 153 154 155 152 158 162 162 159 153 147 143 140 141 139 136 134 131 129 128 126 125 128 129 121 125 124 115 126 126 125 126 127 116 124 129 131 144 136 132 123 121 117
118 123 146 153 156 163 167 170 167 161 156 152 149 149 147 145 142 140 137 134 132 130 132 130 126 133 135 130 133 132 134 141 136 121 128 131 133 135 137 133 127 122 121
117 134 153 156 155 164 171 175 175 173 167 164 159 156 154 154 152 151 148 147 146 140 135 133 133 140 143 139 143 145 141 144 145 144 170 153 147 138 137 131 129 130 128
121 139 156 159 165 168 179 184 183 181 177 174 172 165 163 160 159 161 159 158 158 155 145 143 145 147 149 147 149 149 147 150 152 176 155 158 150 140 141 135 133 134 132
134 149 164 176 180 183 180 191 191 191 189 185 185 179 173 169 167 168 166 166 167 162 156 153 156 157 161 162 159 158 160 157 161 157 157 160 154 145 145 144 141 139 136
115 166 187 194 189 189 183 188 197 199 203 198 197 192 183 178 175 173 173 172 171 167 164 161 165 169 173 172 171 167 170 156 139 158 154 156 155 153 152 151 152 148 146
31 333 320 294 210 204 196 187 197 205 211 209 204 202 196 189 184 180 178 178 175 173 173 173 174 177 188 181 183 176 187 148 137 159 156 159 160 163 161 160 159 157 150
17 17 331 310 298 265 217 210 199 209 213 215 212 207 198 194 193 188 186 184 182 179 177 179 182 185 188 193 191 183 190 179 156 175 171 171 165 168 171 169 164 160 165
28 18 15 8 343 289 264 227 209 204 205 211 209 204 203 202 195 187 193 191 188 186 184 183 182 188 188 194 204 196 200 192 181 178 184 180 174 174 177 174 170 171 173
22 20 10 11 5 6 344 270 248 233 204 206 202 197 203 204 202 194 188 195 192 194 188 187 185 183 194 202 204 201 204 204 186 195 187 185 185 179 181 176 174 181 184
13 16 5 3 3 359 350 1 340 252 251 206 204 198 197 196 203 204 192 191 190 190 189 186 189 189 197 212 215 204 204 207 207 200 190 191 197 186 184 184 180 185 186
8 1 4 357 360 355 353 352 346 347 272 233 210 198 196 202 204 202 199 192 194 190 191 190 194 197 199 211 224 214 215 203 201 186 196 197 194 184 185 189 189 192 187
0 354 353 355 356 349 345 342 336 334 336 272 231 223 205 203 203 199 200 197 196 194 192 191 195 203 203 204 220 224 219 208 193 186 187 197 199 201 198 195 197 195 190
1 349 350 345 350 348 339 336 328 324 325 319 286 231 217 217 206 199 198 200 199 196 192 191 199 206 201 202 214 216 220 205 198 198 192 192 206 207 208 200 195 196 195
357 355 346 343 342 341 336 327 320 317 315 314 322 284 223 216 214 202 198 200 197 193 192 195 195 207 209 200 208 219 212 198 197 196 190 192 197 207 212 213 207 204 209
357 353 348 342 340 334 329 321 316 310 308 307 308 305 304 229 215 205 200 202 191 193 195 196 198 199 204 213 207 211 217 210 193 194 193 193 195 204 208 215 210 214 214
354 350 345 338 334 330 324 320 313 309 304 303 299 301 310 314 238 209 205 197 188 196 198 197 197 198 200 201 205 211 215 224 222 199 199 200 202 204 205 210 216 222 217
351 348 343 336 332 329 325 321 319 310 308 303 297 295 294 293 302 227 224 202 193 199 199 199 195 193 201 186 182 221 229 228 232 237 211 202 205 207 209 210 206 208 216
343 341 338 334 329 323 311 309 301 303 299 296 295 288 290 290 287 257 239 209 200 197 199 194 193 196 200 181 193 165 214 239 240 233 234 220 213 204 209 213 212 211 212
342 342 337 332 325 319 312 310 303 301 297 297 292 289 291 293 287 290 255 219 207 193 196 193 197 192 200 197 191 178 173 214 207 210 225 226 226 213 213 214 214 213 211
338 337 335 331 325 321 313 307 304 298 298 297 288 288 288 284 274 268 271 244 230 211 198 196 194 192 188 194 198 201 177 152 182 201 228 225 223 225 221 217 217 217 213
341 340 333 329 325 323 318 312 302 300 295 294 294 287 280 281 270 268 265 251 240 222 211 200 193 186 190 189 198 198 204 182 162 168 208 215 218 232 227 224 225 221 215
345 341 339 331 329 329 326 320 309 308 307 303 292 283 281 276 272 202 51 46 281 223 218 196 196 193 192 191 195 210 212 209 212 203 218 228 237 240 224 213 217 224 226